Visibility
15.0 15.0 15.0 15.0 15.0 15.0 15.0 15.0 15.0 15.0 10.4 14.3 15.0 15.0 15.0 15.0 15.0 15.0 15.0 15.0 15.0 15.0 15.0 15.0 15.0 15.0 15.0 15.0 15.0 15.0 15.0 15.0 9.3 0.8 0.6 13.6 10.1 15.0 15.0 15.0 15.0 15.0 10.8 6.5 5.4 0.2 0.6 15.0 15.0 15.0 15.0 15.0 15.0 15.0
15.0 15.0 15.0 15.0 15.0 15.0 15.0 15.0 15.0 15.0 15.0 15.0 15.0 15.0 15.0 15.0 15.0 15.0 13.6 15.0 15.0 15.0 15.0 15.0 15.0 15.0 15.0 15.0 15.0 15.0 15.0 15.0 15.0 13.3 2.2 15.0 15.0 15.0 15.0 12.5 15.0 15.0 15.0 15.0 15.0 15.0 15.0 15.0 15.0 15.0 15.0 15.0 15.0 15.0
15.0 15.0 15.0 15.0 15.0 15.0 15.0 15.0 15.0 11.2 15.0 15.0 15.0 15.0 15.0 15.0 15.0 15.0 12.7 2.6 15.0 15.0 15.0 15.0 15.0 15.0 15.0 15.0 15.0 15.0 15.0 15.0 15.0 15.0 7.7 0.1 0.8 5.0 2.7 14.6 15.0 15.0 15.0 15.0 13.5 15.0 15.0 15.0 15.0 15.0 15.0 15.0 15.0 15.0
15.0 15.0 15.0 15.0 15.0 15.0 15.0 10.3 15.0 11.3 4.6 6.5 6.5 11.7 15.0 15.0 14.2 15.0 13.9 7.3 15.0 15.0 7.2 15.0 15.0 15.0 15.0 15.0 15.0 15.0 15.0 15.0 15.0 15.0 0.4 0.2 7.4 15.0 15.0 15.0 15.0 15.0 15.0 15.0 15.0 15.0 15.0 15.0 15.0 15.0 15.0 15.0 15.0 15.0
15.0 15.0 15.0 15.0 15.0 15.0 15.0 10.2 14.7 15.0 7.8 6.3 6.1 10.3 15.0 15.0 15.0 15.0 15.0 15.0 15.0 15.0 15.0 15.0 15.0 15.0 15.0 15.0 15.0 15.0 15.0 15.0 2.1 0.0 0.0 0.3 15.0 14.8 15.0 13.2 15.0 15.0 15.0 15.0 15.0 15.0 15.0 15.0 15.0 15.0 15.0 15.0 15.0 15.0
15.0 15.0 15.0 15.0 15.0 15.0 15.0 15.0 15.0 14.9 6.8 7.7 4.8 8.6 15.0 15.0 15.0 15.0 15.0 15.0 15.0 15.0 15.0 15.0 15.0 15.0 15.0 15.0 15.0 15.0 15.0 15.0 0.0 0.0 0.0 0.0 13.7 9.0 0.1 11.7 15.0 15.0 15.0 15.0 15.0 15.0 15.0 15.0 15.0 15.0 15.0 15.0 15.0 15.0
15.0 15.0 15.0 15.0 15.0 15.0 15.0 15.0 15.0 14.8 15.0 12.1 9.5 11.3 8.0 10.0 15.0 15.0 14.9 1.2 15.0 15.0 0.2 6.3 4.4 15.0 15.0 15.0 12.3 11.6 15.0 0.1 0.0 0.0 0.0 0.0 0.0 9.2 0.0 13.5 15.0 15.0 15.0 15.0 15.0 15.0 15.0 15.0 15.0 15.0 15.0 15.0 15.0 15.0
15.0 15.0 15.0 15.0 15.0 15.0 15.0 15.0 15.0 15.0 15.0 15.0 15.0 15.0 13.4 13.0 15.0 0.2 15.0 14.8 8.8 0.0 0.0 0.1 12.8 15.0 13.1 0.3 1.4 8.6 0.0 0.0 0.0 0.0 0.0 0.0 0.1 0.0 0.0 15.0 15.0 15.0 15.0 15.0 15.0 15.0 15.0 15.0 15.0 15.0 15.0 15.0 15.0 15.0
14.2 15.0 15.0 15.0 15.0 15.0 15.0 15.0 15.0 15.0 15.0 15.0 15.0 15.0 14.2 11.6 0.1 0.2 15.0 15.0 15.0 12.6 12.4 0.9 4.4 3.8 15.0 0.1 0.1 0.1 0.0 0.0 0.0 0.0 0.0 0.0 0.1 0.4 12.7 15.0 15.0 15.0 15.0 15.0 15.0 15.0 15.0 15.0 15.0 15.0 15.0 15.0 10.8 14.1
15.0 15.0 15.0 15.0 15.0 15.0 15.0 15.0 15.0 15.0 15.0 15.0 14.8 0.1 0.0 2.4 15.0 15.0 15.0 0.1 0.1 7.0 14.6 15.0 15.0 15.0 1.3 0.0 0.0 0.0 0.0 0.0 0.1 2.5 0.0 0.0 8.9 15.0 15.0 15.0 15.0 15.0 15.0 15.0 15.0 14.7 14.7 14.5 6.6 15.0 15.0 15.0 11.4 14.9
14.9 15.0 15.0 15.0 15.0 15.0 15.0 15.0 15.0 15.0 15.0 13.9 0.1 0.1 15.0 15.0 5.5 0.2 1.7 0.1 0.0 0.0 0.0 12.8 15.0 15.0 15.0 8.9 4.7 3.6 2.6 14.9 0.3 15.0 10.9 13.5 15.0 15.0 15.0 15.0 15.0 15.0 15.0 15.0 15.0 13.4 15.0 15.0 2.9 1.8 4.6 15.0 10.0 6.7
12.0 13.8 15.0 15.0 15.0 15.0 15.0 15.0 15.0 15.0 0.0 0.1 0.0 0.1 1.2 0.1 0.0 0.0 0.1 0.1 0.0 0.3 0.0 2.4 8.8 15.0 15.0 15.0 4.8 0.6 1.0 0.5 4.5 14.4 0.3 10.7 15.0 15.0 15.0 15.0 15.0 15.0 15.0 15.0 15.0 14.5 15.0 15.0 15.0 6.9 7.7 1.4 0.3 0.6
9.4 10.7 12.5 15.0 15.0 15.0 15.0 15.0 15.0 15.0 15.0 0.1 0.0 0.0 0.0 0.5 0.2 0.1 0.2 0.1 2.5 15.0 13.7 0.1 0.1 0.0 2.4 1.4 0.0 0.1 0.3 0.5 15.0 0.3 7.4 15.0 15.0 15.0 15.0 15.0 15.0 15.0 15.0 15.0 15.0 15.0 15.0 15.0 15.0 2.1 1.0 0.2 0.1 0.1
14.0 15.0 10.3 15.0 15.0 15.0 15.0 15.0 15.0 15.0 13.4 0.0 0.1 0.1 0.2 0.3 3.7 15.0 15.0 15.0 15.0 15.0 15.0 14.4 0.0 0.0 0.0 0.1 0.0 0.1 2.7 1.4 0.3 0.4 15.0 15.0 15.0 15.0 15.0 15.0 15.0 15.0 15.0 15.0 15.0 15.0 15.0 15.0 7.0 7.0 0.2 0.1 1.3 0.1
11.0 9.6 14.7 15.0 15.0 15.0 15.0 15.0 15.0 7.7 0.0 0.1 0.3 2.0 0.6 15.0 15.0 15.0 15.0 15.0 15.0 15.0 15.0 8.9 3.2 0.1 0.1 0.4 0.1 0.3 0.1 3.7 13.5 15.0 15.0 15.0 15.0 15.0 15.0 15.0 15.0 15.0 8.5 14.3 15.0 15.0 15.0 15.0 15.0 9.4 0.2 0.1 0.1 0.2
9.2 14.8 14.5 15.0 15.0 15.0 15.0 10.6 13.0 15.0 0.0 1.2 2.4 0.4 15.0 1.7 15.0 15.0 15.0 15.0 15.0 15.0 6.2 5.4 0.0 0.1 0.1 9.2 1.2 11.4 6.5 15.0 15.0 15.0 15.0 15.0 15.0 15.0 15.0 13.1 12.5 15.0 15.0 15.0 15.0 15.0 2.0 2.1 3.8 4.8 12.4 6.6 3.5 5.3
4.9 15.0 15.0 15.0 15.0 14.8 14.2 2.4 15.0 6.8 13.5 3.9 9.2 15.0 13.5 2.2 15.0 15.0 15.0 15.0 15.0 0.2 0.0 0.0 0.1 13.7 11.3 0.8 2.2 15.0 15.0 15.0 15.0 15.0 15.0 15.0 15.0 14.9 15.0 15.0 15.0 14.7 15.0 15.0 14.6 15.0 15.0 15.0 15.0 15.0 5.2 13.7 15.0 14.8
3.8 15.0 15.0 15.0 11.6 11.8 15.0 15.0 13.6 1.9 1.0 15.0 15.0 15.0 15.0 15.0 15.0 15.0 15.0 15.0 4.2 0.0 0.0 0.6 4.7 0.4 15.0 15.0 15.0 15.0 11.6 15.0 15.0 15.0 15.0 15.0 15.0 15.0 15.0 15.0 15.0 15.0 15.0 15.0 15.0 15.0 15.0 15.0 15.0 15.0 15.0 15.0 15.0 15.0
15.0 15.0 15.0 12.6 15.0 15.0 15.0 14.9 12.4 6.3 8.4 15.0 15.0 15.0 15.0 15.0 15.0 15.0 15.0 15.0 13.9 6.9 0.1 0.0 0.2 12.8 15.0 15.0 15.0 15.0 15.0 15.0 5.6 9.0 14.0 15.0 15.0 7.4 5.7 8.9 9.2 0.8 10.6 15.0 15.0 15.0 15.0 15.0 15.0 15.0 15.0 15.0 15.0 15.0
15.0 15.0 12.6 13.9 14.0 15.0 11.2 11.9 11.2 15.0 13.2 7.0 4.1 1.3 15.0 15.0 15.0 15.0 6.4 0.2 0.0 0.0 0.0 0.1 0.1 2.3 15.0 15.0 15.0 15.0 15.0 15.0 15.0 0.4 0.1 0.2 1.2 4.1 6.9 2.4 0.4 0.3 1.7 15.0 15.0 15.0 15.0 15.0 15.0 15.0 15.0 15.0 15.0 15.0
8.6 14.9 9.6 7.9 2.0 15.0 15.0 1.0 0.1 11.2 15.0 14.8 0.2 1.7 7.2 0.2 0.3 9.3 0.0 0.0 0.0 0.1 0.1 1.8 14.9 10.5 3.2 15.0 15.0 15.0 15.0 15.0 15.0 15.0 0.7 0.1 0.5 4.1 0.3 0.1 0.1 2.0 15.0 15.0 15.0 15.0 15.0 13.2 15.0 15.0 15.0 13.8 15.0 15.0
15.0 11.0 2.7 3.2 5.3 2.6 2.9 15.0 5.0 0.2 10.7 3.3 2.9 13.8 1.6 0.6 4.0 3.8 0.0 0.0 0.1 14.3 9.9 15.0 15.0 15.0 5.1 15.0 15.0 15.0 15.0 15.0 15.0 15.0 14.9 15.0 0.7 0.3 0.4 0.5 0.3 5.9 15.0 15.0 15.0 15.0 15.0 15.0 15.0 15.0 15.0 15.0 15.0 15.0
6.7 9.8 0.4 0.8 0.7 0.1 3.2 15.0 6.5 0.2 0.2 4.5 5.2 3.8 0.3 4.5 5.4 2.3 0.4 1.5 15.0 15.0 15.0 15.0 15.0 15.0 0.6 12.1 15.0 15.0 15.0 15.0 15.0 15.0 15.0 15.0 15.0 15.0 3.6 0.4 0.6 15.0 11.6 12.5 15.0 15.0 14.2 15.0 11.6 15.0 15.0 15.0 15.0 15.0
2.9 0.6 0.2 0.1 2.7 9.6 4.9 0.2 9.6 0.4 1.2 0.2 6.2 15.0 0.1 1.9 0.2 0.2 1.4 15.0 15.0 15.0 3.8 15.0 5.0 0.1 2.0 15.0 15.0 15.0 15.0 15.0 15.0 14.7 15.0 15.0 2.5 0.5 8.4 15.0 15.0 15.0 15.0 15.0 15.0 15.0 15.0 15.0 15.0 15.0 15.0 15.0 15.0 15.0
0.3 0.2 0.7 4.3 2.4 0.3 0.3 4.2 13.7 4.4 0.1 6.9 0.4 0.1 0.2 0.3 0.5 0.4 15.0 15.0 15.0 0.3 0.6 14.6 12.7 15.0 1.6 0.7 0.4 1.2 15.0 15.0 15.0 4.3 1.3 15.0 15.0 9.6 1.2 2.3 2.9 15.0 15.0 11.3 8.9 15.0 15.0 15.0 15.0 15.0 15.0 15.0 15.0 15.0
1.7 15.0 2.6 12.2 2.5 1.1 14.3 6.1 6.1 6.1 6.2 0.1 4.8 0.5 4.0 7.5 1.6 0.7 15.0 15.0 15.0 14.7 2.5 0.4 4.2 0.2 0.7 9.9 0.4 0.7 1.4 15.0 15.0 14.6 2.8 15.0 15.0 15.0 14.3 4.8 1.6 0.9 15.0 15.0 15.0 15.0 15.0 15.0 15.0 15.0 15.0 15.0 14.9 15.0
3.3 14.9 15.0 14.8 1.6 12.3 15.0 15.0 13.2 0.2 0.1 0.2 2.4 0.5 15.0 2.5 9.0 15.0 15.0 15.0 15.0 15.0 15.0 15.0 15.0 15.0 8.5 0.7 0.8 8.4 15.0 15.0 15.0 15.0 11.1 15.0 15.0 15.0 15.0 15.0 15.0 15.0 15.0 15.0 15.0 15.0 15.0 15.0 15.0 15.0 15.0 15.0 15.0 15.0
13.4 15.0 2.1 13.6 0.2 0.7 15.0 8.0 13.5 0.4 0.3 15.0 15.0 15.0 15.0 15.0 15.0 5.3 0.1 2.4 15.0 15.0 15.0 15.0 15.0 15.0 15.0 15.0 9.8 5.0 1.2 0.5 0.8 11.7 14.3 10.5 7.3 9.4 11.4 15.0 15.0 15.0 15.0 15.0 15.0 15.0 15.0 15.0 15.0 15.0 15.0 15.0 15.0 15.0
2.4 15.0 3.8 0.1 0.1 0.8 11.0 13.5 0.3 0.2 7.8 15.0 15.0 5.5 4.7 6.7 1.4 1.4 0.8 4.2 15.0 15.0 12.0 0.4 0.1 3.9 2.7 2.4 2.3 10.4 9.0 15.0 15.0 3.1 2.6 0.4 2.2 5.5 3.1 5.1 8.6 14.5 15.0 15.0 15.0 15.0 15.0 15.0 15.0 15.0 15.0 15.0 14.1 15.0
10.0 0.7 0.1 0.1 0.3 1.2 1.5 2.9 1.7 0.8 15.0 15.0 15.0 15.0 10.6 2.2 0.6 0.5 0.3 0.4 3.3 14.8 14.8 15.0 4.1 1.9 1.4 3.0 0.4 0.1 0.7 15.0 15.0 15.0 13.9 7.0 13.1 5.3 4.8 5.8 5.9 7.4 15.0 15.0 12.4 4.9 2.0 4.7 7.5 14.9 15.0 14.9 15.0 15.0
0.9 0.1 0.1 0.2 0.5 0.8 0.7 7.0 11.7 15.0 15.0 7.7 5.2 9.1 1.4 0.6 0.3 0.2 0.2 0.1 0.4 1.9 5.3 0.2 0.1 0.3 8.5 8.0 15.0 5.4 0.9 13.1 15.0 15.0 15.0 15.0 8.0 6.9 7.0 9.0 12.4 15.0 15.0 13.7 15.0 15.0 15.0 15.0 15.0 15.0 15.0 15.0 15.0 15.0
0.1 0.3 6.2 0.5 0.4 0.2 0.3 7.8 4.8 3.9 4.1 11.5 5.4 5.0 14.2 14.2 1.4 0.5 0.2 0.2 0.1 0.4 7.2 15.0 13.7 1.0 1.0 2.2 9.7 15.0 15.0 15.0 15.0 15.0 15.0 14.5 15.0 15.0 15.0 12.3 14.8 15.0 15.0 15.0 15.0 15.0 15.0 15.0 15.0 15.0 15.0 15.0 15.0 15.0
3.0 3.9 2.4 0.1 1.0 0.8 2.1 13.9 7.4 3.5 3.8 2.9 1.8 3.6 11.4 14.2 12.0 12.2 14.0 1.4 1.3 6.7 13.9 8.7 0.4 0.1 0.2 2.8 15.0 9.6 15.0 14.4 14.2 13.2 15.0 15.0 15.0 15.0 15.0 15.0 15.0 15.0 15.0 15.0 15.0 15.0 15.0 15.0 15.0 15.0 15.0 15.0 15.0 15.0